• Join FlightAware (Why Join?)
  • Login
  • US Flag 
10:10AM EST


 

Airport Tracker/Info


-or-


 

Live Flight TrackerFlight Track Log ✈ AWE479 ✈ 07-May-2013 ✈ KCLT - KDEN

Flight Track Log - Related Links

Times and Time Zones

All times are in EDT time to prevent confusion due to time zone crossing. See the AWE479 flight status page for this flight to view local times or setup timezone preferences in your user account.

Time Position Orientation Groundspeed Altitude Reporting Facility
EDT Latitude Longitude Course Direction KTS MPH feet Rate Location/Type
07:53AM 35.1739 -81.4189 239° Southwest  Level FlightAware Approximate
07:53AM 35.1220 -81.1090 239° Southwest 279 321 7,100  Level FlightAware
07:53AM 35.1230 -81.1360 273° West 281 323 7,700 1,200 Climbing FlightAware
07:54AM 35.1240 -81.1830 272° West 281 323 8,000 480 Climbing FlightAware
07:54AM 35.1250 -81.2110 273° West 284 327 8,100 1,200 Climbing FlightAware
07:54AM 35.1260 -81.2440 272° West 291 335 8,800 2,700 Climbing FlightAware
07:55AM 35.1280 -81.3030 272° West 287 330 10,600 1,320 Climbing FlightAware
07:56AM 35.1310 -81.3680 273° West 287 330 10,600 1,080 Level FlightAware
07:57AM 35.1330 -81.4670 271° West 299 344 12,400 1,080 Climbing FlightAware
07:57AM 35.1340 -81.5240 271° West 299 344 12,400  Level FlightAware
07:58AM 35.1360 -81.5960 272° West 299 344 12,400 1,920 Level FlightAware
08:02AM 35.0931 -82.2760 266° West 432 497 22,300 2,220 Climbing FlightAware ADS-B
08:03AM 35.0974 -82.2987 283° West 434 499 22,500 720 Climbing FlightAware ADS-B
08:03AM 35.1156 -82.3702 287° West 445 512 22,800 480 Climbing FlightAware ADS-B
08:04AM 35.1346 -82.4446 287° West 456 525 23,000 660 Climbing FlightAware ADS-B
08:04AM 35.1536 -82.5191 287° West 460 529 23,500 900 Climbing FlightAware ADS-B
08:05AM 35.1730 -82.5947 287° West 464 534 23,900 840 Climbing FlightAware ADS-B
08:05AM 35.1922 -82.6704 287° West 466 536 24,400 960 Climbing FlightAware ADS-B
08:06AM 35.2116 -82.7463 287° West 468 539 24,900 780 Climbing FlightAware ADS-B
08:06AM 35.2372 -82.8474 287° West 468 539 25,300 1,080 Climbing FlightAware ADS-B
08:07AM 35.2565 -82.9241 287° West 461 531 26,200 1,140 Climbing FlightAware ADS-B
08:07AM 35.2762 -83.0019 287° West 465 535 26,500 540 Climbing FlightAware ADS-B
08:08AM 35.2954 -83.0786 287° West 472 543 26,800 840 Climbing FlightAware ADS-B
08:08AM 35.3150 -83.1572 287° West 471 542 27,400 840 Climbing FlightAware ADS-B
08:09AM 35.3345 -83.2346 287° West 478 550 27,700 780 Climbing FlightAware ADS-B
08:09AM 35.3541 -83.3139 287° West 479 551 28,200 840 Climbing FlightAware ADS-B
08:10AM 35.3743 -83.3948 287° West 482 555 28,600 1,140 Climbing FlightAware ADS-B
08:10AM 35.3940 -83.4745 287° West 475 547 29,400 1,560 Climbing FlightAware ADS-B
08:11AM 35.4130 -83.5517 287° West 467 537 30,200 1,260 Climbing FlightAware ADS-B
08:11AM 35.4324 -83.6301 287° West 466 536 30,700 1,020 Climbing FlightAware ADS-B
08:12AM 35.4513 -83.7072 287° West 461 531 31,300 1,140 Climbing FlightAware ADS-B
08:12AM 35.4711 -83.7888 287° West 459 528 31,900 1,260 Climbing FlightAware ADS-B
08:13AM 35.4900 -83.8662 287° West 450 518 32,700 1,140 Climbing FlightAware ADS-B
08:13AM 35.5079 -83.9398 287° West 448 516 33,100 540 Climbing FlightAware ADS-B
08:14AM 35.5260 -84.0146 287° West 451 519 33,300 480 Climbing FlightAware ADS-B
08:14AM 35.5439 -84.0888 287° West 452 520 33,600 540 Climbing FlightAware ADS-B
08:15AM 35.5623 -84.1656 286° West 452 520 33,900 360 Climbing FlightAware ADS-B
08:15AM 35.5804 -84.2407 287° West 458 527 34,000 60 Climbing FlightAware ADS-B
08:16AM 35.5986 -84.3163 287° West 463 533 34,000  Level FlightAware ADS-B
08:17AM 35.6168 -84.3928 286° West 465 535 34,000  Level FlightAware ADS-B
08:17AM 35.6348 -84.4693 286° West 464 534 34,000  Level FlightAware ADS-B
08:18AM 35.6527 -84.5451 286° West 464 534 34,000  Level FlightAware ADS-B
08:18AM 35.6712 -84.6239 286° West 462 532 34,000  Level FlightAware ADS-B
08:19AM 35.6903 -84.7047 286° West 463 533 34,000  Level FlightAware ADS-B
08:19AM 35.7084 -84.7820 286° West 463 533 34,000  Level FlightAware ADS-B
08:20AM 35.7265 -84.8590 286° West 464 534 34,000  Level FlightAware ADS-B
08:20AM 35.7444 -84.9358 286° West 465 535 34,000  Level FlightAware ADS-B
08:21AM 35.7623 -85.0126 286° West 466 536 34,000  Level FlightAware ADS-B
08:21AM 35.7812 -85.0940 286° West 467 537 34,000  Level FlightAware ADS-B
08:22AM 35.7992 -85.1716 286° West 468 539 34,000  Level FlightAware ADS-B
08:22AM 35.8174 -85.2503 286° West 466 536 34,000  Level FlightAware ADS-B
08:23AM 35.8348 -85.3273 286° West 467 537 34,000  Level FlightAware ADS-B
08:23AM 35.8523 -85.4042 286° West 467 537 34,000  Level FlightAware ADS-B
08:24AM 35.8699 -85.4811 286° West 467 537 34,000  Level FlightAware ADS-B
08:24AM 35.8879 -85.5598 286° West 467 537 34,000  Level FlightAware ADS-B
08:25AM 35.9054 -85.6366 286° West 462 532 34,000  Level FlightAware ADS-B
08:25AM 35.9229 -85.7140 286° West 460 529 34,000  Level FlightAware ADS-B
08:26AM 35.9426 -85.8020 285° West 461 531 34,000  Level FlightAware ADS-B
08:26AM 35.9601 -85.8801 285° West 460 529 34,000  Level FlightAware ADS-B
08:27AM 35.9777 -85.9586 286° West 459 528 34,000  Level FlightAware ADS-B
08:27AM 35.9963 -86.0424 285° West 460 529 34,000  Level FlightAware ADS-B
08:28AM 36.0135 -86.1199 285° West 459 528 34,000  Level FlightAware ADS-B
08:28AM 36.0305 -86.1967 285° West 457 526 34,000  Level FlightAware ADS-B
08:29AM 36.0474 -86.2735 285° West 454 522 34,000  Level FlightAware ADS-B
08:29AM 36.0639 -86.3489 285° West 455 524 34,000  Level FlightAware ADS-B
08:30AM 36.0904 -86.4699 285° West 453 521 34,000  Level FlightAware ADS-B
08:31AM 36.1072 -86.5470 285° West 455 524 34,000  Level FlightAware ADS-B
08:31AM 36.1271 -86.6383 285° West 455 524 34,000  Level FlightAware ADS-B
08:32AM 36.1390 -86.6825 288° West 452 520 34,000  Level FlightAware ADS-B
08:32AM 36.1770 -86.7900 294° West 437 503 34,000  Level FlightAware
08:33AM 36.2150 -86.8880 296° West 434 499 34,000  Level FlightAware
08:34AM 36.2490 -86.9800 295° West 434 499 34,000  Level FlightAware
08:35AM 36.2880 -87.0820 295° West 428 493 34,000  Level FlightAware
08:35AM 36.3210 -87.1710 295° West 421 484 34,000  Level FlightAware
08:36AM 36.3530 -87.2570 295° West 425 489 34,000  Level FlightAware
08:37AM 36.3900 -87.3550 295° West 417 480 34,000  Level FlightAware
08:37AM 36.4270 -87.4540 295° West 404 465 34,000  Level FlightAware
08:38AM 36.4570 -87.5340 295° West 406 467 34,000  Level FlightAware
08:39AM 36.4930 -87.6300 295° West 413 475 34,000  Level FlightAware
08:39AM 36.5250 -87.7170 295° West 419 482 34,000 300 Level FlightAware
08:40AM 36.5570 -87.8050 294° West 417 480 34,400 660 Climbing FlightAware
08:41AM 36.5940 -87.9040 295° West 413 475 35,000 600 Climbing FlightAware
08:42AM 36.6260 -87.9910 295° West 414 476 35,300 480 Climbing FlightAware
08:42AM 36.6620 -88.0910 294° West 416 479 35,700 480 Climbing FlightAware
08:43AM 36.6920 -88.1740 294° West 416 479 36,000 180 Climbing FlightAware
08:44AM 36.7260 -88.2660 295° West 423 487 36,000  Level FlightAware
08:44AM 36.7620 -88.3640 295° West 431 496 36,000  Level FlightAware
08:45AM 36.7950 -88.4570 294° West 431 496 36,000  Level FlightAware
08:46AM 36.8320 -88.5590 294° West 434 499 36,000  Level FlightAware
08:46AM 36.8650 -88.6520 294° West 438 504 36,000  Level FlightAware
08:47AM 36.8980 -88.7440 294° West 434 499 36,000  Level FlightAware
08:48AM 36.9310 -88.8380 294° West 436 502 36,000  Level FlightAware
08:49AM 36.9630 -88.9290 294° West 437 503 36,000  Level FlightAware
08:49AM 36.9890 -89.0080 292° West 437 503 36,000  Level FlightAware
08:50AM 37.0320 -89.1220 295° West 437 503 36,000  Level FlightAware
08:51AM 37.0650 -89.2160 294° West 436 502 36,000  Level FlightAware
08:52AM 37.1140 -89.3560 294° West 436 502 36,000  Level FlightAware
08:52AM 37.1400 -89.4360 292° West 436 502 36,000  Level FlightAware
08:53AM 37.1670 -89.5150 293° West 436 502 36,000  Level FlightAware
08:54AM 37.1940 -89.5940 293° West 436 502 36,000  Level FlightAware
08:54AM 37.2210 -89.6730 293° West 436 502 36,000  Level FlightAware
08:55AM 37.2480 -89.7530 293° West 436 502 36,000  Level FlightAware
08:56AM 37.2810 -89.8520 293° West 436 502 36,000  Level FlightAware
08:56AM 37.3080 -89.9310 293° West 436 502 36,000  Level FlightAware
08:57AM 37.3350 -90.0100 293° West 436 502 36,000  Level FlightAware
08:58AM 37.3610 -90.0900 292° West 436 502 36,000  Level FlightAware
08:58AM 37.3880 -90.1690 293° West 436 502 36,000  Level FlightAware
08:59AM 37.4220 -90.2690 293° West 436 502 36,000  Level FlightAware
09:00AM 37.4480 -90.3480 293° West 436 502 36,000  Level FlightAware
09:01AM 37.4750 -90.4280 293° West 436 502 36,000  Level FlightAware
09:01AM 37.5769 -90.6467 293° West 438 504 36,000 -120 Level Kansas City Center
09:02AM 37.6344 -90.7764 299° West 433 498 35,900  Descending Kansas City Center
09:03AM 37.6931 -90.9108 299° West 434 499 36,000  Climbing Kansas City Center
09:04AM 37.7511 -91.0453 299° West 436 502 36,000  Level Kansas City Center
09:05AM 37.8150 -91.1928 299° West 436 502 36,000  Level Kansas City Center
09:06AM 37.8736 -91.3272 299° West 436 502 36,000  Level Kansas City Center
09:07AM 37.9300 -91.4614 298° West 434 499 36,000  Level Kansas City Center
09:08AM 37.9983 -91.6222 298° West 433 498 36,000  Level Kansas City Center
09:09AM 38.0567 -91.7558 299° West 434 499 36,000  Level Kansas City Center
09:10AM 38.1136 -91.8903 298° West 434 499 36,000  Level Kansas City Center
09:11AM 38.1703 -92.0253 298° West 435 501 36,000  Level Kansas City Center
09:17AM 38.5040 -92.8260 298° West 425 489 36,000  Level FlightAware
09:18AM 38.5370 -92.9080 297° West 426 490 36,000  Level FlightAware
09:19AM 38.5750 -93.0010 298° West 426 490 36,000  Level FlightAware
09:19AM 38.6220 -93.1150 298° West 428 493 36,000  Level FlightAware
09:20AM 38.6640 -93.2190 297° West 432 497 36,000  Level FlightAware
09:21AM 38.6990 -93.3050 298° West 434 499 36,000  Level FlightAware
09:21AM 38.7420 -93.4100 298° West 436 502 36,000  Level FlightAware
09:22AM 38.7790 -93.5030 297° West 438 504 36,000  Level FlightAware
09:23AM 38.8160 -93.5940 298° West 439 505 36,000  Level FlightAware
09:24AM 38.8590 -93.7020 297° West 436 502 36,000  Level FlightAware
09:24AM 38.8950 -93.7930 297° West 435 501 36,000  Level FlightAware
09:25AM 38.9350 -93.8940 297° West 419 482 36,000  Level FlightAware
09:26AM 38.9700 -93.9820 297° West 410 472 36,000  Level FlightAware
09:26AM 39.0050 -94.0690 297° West 412 474 36,000  Level FlightAware
09:27AM 39.0440 -94.1690 297° West 413 475 36,000  Level FlightAware
09:28AM 39.0770 -94.2540 297° West 415 478 36,000  Level FlightAware
09:28AM 39.1170 -94.3560 297° West 415 478 36,000  Level FlightAware
09:29AM 39.1520 -94.4450 297° West 415 478 36,000  Level FlightAware
09:30AM 39.1890 -94.5410 296° West 414 476 36,000  Level FlightAware
09:31AM 39.2240 -94.6300 297° West 414 476 36,000  Level FlightAware
09:31AM 39.2590 -94.7200 297° West 414 476 36,000  Level FlightAware
09:32AM 39.2970 -94.8200 296° West 412 474 36,000  Level FlightAware
09:33AM 39.3310 -94.9090 296° West 411 473 36,000  Level FlightAware
09:33AM 39.3680 -95.0040 297° West 411 473 36,000  Level FlightAware
09:34AM 39.4020 -95.0940 296° West 411 473 36,000  Level FlightAware
09:35AM 39.4360 -95.1830 296° West 419 482 36,000  Level FlightAware
09:35AM 39.4760 -95.2880 296° West 430 495 36,000  Level FlightAware
09:36AM 39.5120 -95.3820 296° West 438 504 36,000  Level FlightAware
09:37AM 39.5470 -95.4750 296° West 439 505 36,000  Level FlightAware
09:38AM 39.5860 -95.5790 296° West 440 506 36,000  Level FlightAware
09:38AM 39.6220 -95.6760 296° West 439 505 36,000  Level FlightAware
09:39AM 39.6600 -95.7790 296° West 439 505 36,000  Level FlightAware
09:40AM 39.6440 -95.7350 115° Southeast 440 506 36,000  Level FlightAware
09:40AM 39.7020 -95.8900 296° West 440 506 36,000  Level FlightAware
09:41AM 39.7340 -95.9760 296° West 439 505 36,000  Level FlightAware
09:42AM 39.7590 -96.0450 295° West 440 506 36,000  Level FlightAware
09:43AM 39.7980 -96.1520 295° West 440 506 36,000  Level FlightAware
09:43AM 39.8470 -96.2830 296° West 439 505 36,000  Level FlightAware
09:44AM 39.8830 -96.3840 295° West 439 505 36,000  Level FlightAware
09:45AM 39.9140 -96.4680 296° West 439 505 36,000  Level FlightAware
09:45AM 39.9380 -96.5320 296° West 439 505 36,000  Level FlightAware
09:46AM 39.9900 -96.6770 295° West 439 505 36,000  Level FlightAware
09:47AM 40.0320 -96.7930 295° West 438 504 36,000  Level FlightAware
09:48AM 40.0710 -96.9020 295° West 438 504 36,000  Level FlightAware
09:48AM 40.1000 -96.9830 295° West 438 504 36,000  Level FlightAware
09:49AM 40.1290 -97.0650 295° West 438 504 36,000  Level FlightAware
09:50AM 40.1580 -97.1470 295° West 438 504 36,000  Level FlightAware
09:51AM 40.1950 -97.2490 295° West 438 504 36,000  Level FlightAware
09:51AM 40.2240 -97.3310 295° West 438 504 36,000  Level FlightAware
09:52AM 40.2530 -97.4130 295° West 438 504 36,000  Level FlightAware
09:53AM 40.2820 -97.4940 295° West 438 504 36,000  Level FlightAware
09:53AM 40.3110 -97.5760 295° West 438 504 36,000  Level FlightAware
09:54AM 40.3470 -97.6790 295° West 438 504 36,000  Level FlightAware
09:55AM 40.3770 -97.7610 296° West 438 504 36,000  Level FlightAware
09:55AM 40.4060 -97.8430 295° West 438 504 36,000  Level FlightAware
09:56AM 40.4350 -97.9250 295° West 438 504 36,000  Level FlightAware
09:57AM 40.4640 -98.0070 295° West 438 504 36,000  Level FlightAware
09:57AM 40.5922 -98.4025 295° West 437 503 36,000  Level Denver Center
09:58AM 40.6092 -98.4936 284° West 433 498 36,000  Level Minneapolis Center
09:59AM 40.6244 -98.6517 277° West 431 496 36,000  Level Minneapolis Center
10:00AM 40.6397 -98.8403 276° West 430 495 36,000  Level Minneapolis Center
10:01AM 40.6544 -98.9975 277° West 429 494 36,000  Level Minneapolis Center
10:02AM 40.6678 -99.1539 276° West 429 494 36,000  Level Minneapolis Center
10:03AM 40.6758 -99.2478 276° West 427 491 36,000  Level Denver Center
10:04AM 40.6900 -99.4056 277° West 431 496 36,000  Level Denver Center
10:05AM 40.7019 -99.5631 276° West 432 497 36,000  Level Denver Center
10:06AM 40.7147 -99.7181 276° West 426 490 36,000  Level Denver Center
10:07AM 40.7275 -99.8822 276° West 430 495 36,000  Level Denver Center
10:08AM 40.7383 -100.0314 276° West 428 493 36,000  Level Denver Center
10:09AM 40.7528 -100.2072 276° West 432 497 36,000  Level Denver Center
10:14AM 40.7178 -101.0760 276° West 429 494 36,000  Level FlightAware ADS-B
10:15AM 40.7038 -101.1560 257° West 428 493 36,000  Level FlightAware ADS-B
10:15AM 40.6903 -101.2320 257° West 427 491 36,000  Level FlightAware ADS-B
10:16AM 40.6770 -101.3080 257° West 427 491 36,000  Level FlightAware ADS-B
10:16AM 40.6635 -101.3860 257° West 426 490 36,000  Level FlightAware ADS-B
10:17AM 40.6501 -101.4620 257° West 426 490 36,000  Level FlightAware ADS-B
10:17AM 40.6361 -101.5420 257° West 426 490 36,000  Level FlightAware ADS-B
10:18AM 40.6226 -101.6170 257° West 426 490 36,000  Level FlightAware ADS-B
10:18AM 40.6089 -101.6940 257° West 427 491 36,000  Level FlightAware ADS-B
10:19AM 40.5950 -101.7700 256° West 427 491 36,000  Level FlightAware ADS-B
10:19AM 40.5806 -101.8500 257° West 429 494 36,000  Level FlightAware ADS-B
10:20AM 40.5652 -101.9340 256° West 429 494 36,000  Level FlightAware ADS-B
10:20AM 40.5512 -102.0110 257° West 430 495 36,000  Level FlightAware ADS-B
10:21AM 40.5369 -102.0880 256° West 430 495 36,000  Level FlightAware ADS-B
10:21AM 40.5228 -102.1640 256° West 430 495 36,000  Level FlightAware ADS-B
10:22AM 40.5082 -102.2430 256° West 430 495 36,000 -120 Level FlightAware ADS-B
10:22AM 40.4939 -102.3200 256° West 431 496 35,900 -600 Descending FlightAware ADS-B
10:23AM 40.4796 -102.3970 256° West 432 497 35,400 -1,020 Descending FlightAware ADS-B
10:23AM 40.4653 -102.4750 256° West 435 501 34,900 -1,020 Descending FlightAware ADS-B
10:24AM 40.4508 -102.5530 256° West 437 503 34,400 -1,020 Descending FlightAware ADS-B
10:24AM 40.4361 -102.6310 256° West 439 505 33,900 -1,020 Descending FlightAware ADS-B
10:25AM 40.4215 -102.7090 256° West 441 507 33,400 -1,500 Descending FlightAware ADS-B
10:25AM 40.4068 -102.7870 256° West 443 510 32,400 -1,860 Descending FlightAware ADS-B
10:26AM 40.3913 -102.8690 256° West 431 496 31,500 -2,040 Descending FlightAware ADS-B
10:27AM 40.3769 -102.9460 256° West 428 493 30,300 -2,400 Descending FlightAware ADS-B
10:27AM 40.3624 -103.0220 256° West 423 487 29,100 -2,280 Descending FlightAware ADS-B
10:28AM 40.3480 -103.0970 256° West 417 480 28,000 -2,100 Descending FlightAware ADS-B
10:28AM 40.3326 -103.1770 256° West 410 472 26,900 -2,100 Descending FlightAware ADS-B
10:29AM 40.3185 -103.2500 256° West 403 464 25,800 -2,100 Descending FlightAware ADS-B
10:29AM 40.3045 -103.3230 256° West 400 460 24,800 -2,160 Descending FlightAware ADS-B
10:30AM 40.2900 -103.3970 256° West 395 455 23,600 -2,040 Descending FlightAware ADS-B
10:30AM 40.2780 -103.4590 256° West 390 449 22,700 -1,980 Descending FlightAware
10:30AM 40.2764 -103.4670 255° West 389 448 22,600 -2,340 Descending FlightAware ADS-B
10:31AM 40.2628 -103.5360 256° West 383 441 21,500 -2,100 Descending FlightAware ADS-B
10:31AM 40.2495 -103.6040 256° West 377 434 20,500 -1,800 Descending FlightAware ADS-B
10:32AM 40.2360 -103.6730 256° West 365 420 19,700 -1,680 Descending FlightAware ADS-B
10:32AM 40.2233 -103.7370 255° West 359 413 18,800 -1,380 Descending FlightAware ADS-B
10:33AM 40.2107 -103.8000 255° West 342 394 18,300 -1,020 Descending FlightAware ADS-B
10:33AM 40.2037 -103.8360 256° West 331 381 18,000 -840 Descending FlightAware ADS-B
10:33AM 40.2029 -103.8420 260° West 330 380 18,000 -900 Level FlightAware ADS-B
10:33AM 40.2022 -103.8500 263° West 329 379 17,900 -1,740 Descending FlightAware ADS-B
10:33AM 40.2027 -103.8700 272° West 327 376 17,600 -1,680 Descending FlightAware ADS-B
10:34AM 40.2081 -103.9290 277° West 323 372 16,800 -1,680 Descending FlightAware ADS-B
10:34AM 40.2134 -103.9880 277° West 321 369 15,900 -1,620 Descending FlightAware ADS-B
10:35AM 40.2180 -104.0360 277° West 320 368 15,300 -1,560 Descending FlightAware ADS-B
10:35AM 40.2232 -104.0930 277° West 315 362 14,500 -1,500 Descending FlightAware ADS-B
10:36AM 40.2285 -104.1510 277° West 309 356 13,800 -1,380 Descending FlightAware ADS-B
10:36AM 40.2331 -104.2000 277° West 303 349 13,200 -1,380 Descending FlightAware ADS-B
10:37AM 40.2380 -104.2540 277° West 297 342 12,500 -1,320 Descending FlightAware ADS-B
10:37AM 40.2422 -104.3020 277° West 286 329 12,000 -960 Descending FlightAware ADS-B
10:37AM 40.2424 -104.3100 272° West 284 327 12,000 -720 Level FlightAware ADS-B
10:37AM 40.2420 -104.3160 265° West 283 326 11,900 -720 Descending FlightAware ADS-B
10:37AM 40.2407 -104.3240 258° West 280 322 11,900 -780 Level FlightAware ADS-B
10:37AM 40.2394 -104.3290 251° West 279 321 11,800 -1,020 Descending FlightAware ADS-B
10:37AM 40.2378 -104.3340 247° West 278 320 11,800 -600 Level FlightAware ADS-B
10:38AM 40.2332 -104.3440 239° Southwest 275 316 11,700 -660 Descending FlightAware ADS-B
10:38AM 40.2118 -104.3870 237° Southwest 257 296 11,400 -780 Descending FlightAware ADS-B
10:39AM 40.1920 -104.4260 236° Southwest 248 285 10,900 -1,200 Descending FlightAware ADS-B
10:39AM 40.1730 -104.4630 236° Southwest 249 287 10,200 -1,380 Descending FlightAware ADS-B
10:39AM 40.1646 -104.4800 237° Southwest 250 288 9,900 -1,320 Descending FlightAware ADS-B
10:40AM 40.1549 -104.4980 235° Southwest 249 287 9,600 -1,200 Descending FlightAware ADS-B
10:40AM 40.1436 -104.5190 235° Southwest 249 287 9,300 -1,140 Descending FlightAware ADS-B
10:40AM 40.1330 -104.5380 234° Southwest 248 285 9,000 -1,260 Descending FlightAware ADS-B
10:40AM 40.1240 -104.5540 234° Southwest 246 283 8,700 -1,200 Descending FlightAware ADS-B
10:41AM 40.1130 -104.5740 234° Southwest 245 282 8,400 -1,200 Descending FlightAware ADS-B
10:41AM 40.1101 -104.5780 227° Southwest 245 282 8,300 -780 Descending FlightAware ADS-B
10:41AM 40.1067 -104.5830 228° Southwest 246 283 8,300 -780 Level FlightAware ADS-B
10:41AM 40.1026 -104.5870 217° Southwest 245 282 8,200 -900 Descending FlightAware ADS-B
10:41AM 40.0996 -104.5890 207° Southwest 244 281 8,200 -900 Level FlightAware ADS-B
10:41AM 40.0963 -104.5920 215° Southwest 243 280 8,100 -780 Descending FlightAware ADS-B
10:41AM 40.0839 -104.6000 206° Southwest 238 274 8,000 -840 Descending FlightAware ADS-B
10:41AM 40.0679 -104.6100 206° Southwest 231 266 7,700 -840 Descending FlightAware ADS-B
10:42AM 40.0623 -104.6150 214° Southwest 228 262 7,700 -360 Level FlightAware ADS-B
10:42AM 40.0527 -104.6240 216° Southwest 220 253 7,600 -720 Descending FlightAware ADS-B
10:42AM 40.0405 -104.6350 215° Southwest 213 245 7,400 -600 Descending FlightAware ADS-B
10:42AM 40.0285 -104.6460 215° Southwest 199 229 7,300 -720 Descending FlightAware ADS-B
10:42AM 40.0197 -104.6540 215° Southwest 191 220 7,100 -720 Descending FlightAware ADS-B
10:43AM 40.0083 -104.6650 216° Southwest 191 220 7,000 -300 Descending FlightAware ADS-B
10:43AM 40.0035 -104.6690 213° Southwest 193 222 7,000  Level FlightAware ADS-B
10:43AM 39.9991 -104.6730 215° Southwest 194 223 7,000  Level FlightAware ADS-B
10:43AM 39.9936 -104.6770 209° Southwest 196 226 7,000 -360 Level FlightAware ADS-B
10:43AM 39.9858 -104.6830 211° Southwest 198 228 6,900 -960 Descending FlightAware ADS-B
10:43AM 39.9832 -104.6850 211° Southwest 198 228 6,800 -1,020 Descending FlightAware ADS-B
10:43AM 39.9804 -104.6870 209° Southwest 199 229 6,800 -780 Level FlightAware ADS-B
10:43AM 39.9758 -104.6880 189° South 201 231 6,700 -720 Descending FlightAware ADS-B
10:43AM 39.9725 -104.6880 180° South 202 232 6,700 -960 Level FlightAware ADS-B
10:44AM 39.9583 -104.6870 177° South 189 217 6,400 -960 Descending FlightAware ADS-B
10:44AM 39.9496 -104.6870 180° South 179 206 6,300 -840 Descending FlightAware ADS-B
10:44AM 39.9395 -104.6860 176° South 173 199 6,100 -900 Descending FlightAware ADS-B
10:44AM 39.9323 -104.6860 180° South 172 198 6,000 -720 Descending FlightAware ADS-B
10:44AM 39.9251 -104.6860 180° South 171 197 5,900 -900 Descending FlightAware ADS-B
10:45AM 39.9105 -104.6870 183° South 165 190 5,600 -1,080 Descending FlightAware ADS-B
10:45AM 39.8983 -104.6870 180° South 155 178 5,300 -1,140 Descending FlightAware ADS-B